Location: ????????
(55.6189°N, 38.3031°E)
Time: 02:45:47
(UTC+00:00)

Cosmos 2100 Rocket - Pass Details

Date: 15 November 2019
Orbit: 956 x 1001 km, 82.9° (Epoch: 14 December)

Event Time Altitude Azimuth Distance (km) Brightness Sun altitude
Rises 03:50:50 0° 215° (SW) 3,654 6.8 -9.7°
Reaches altitude 10° 03:53:30 10° 223° (SW) 2,705 6.1 -9.3°
Maximum altitude 03:59:19 42° 293° (WNW) 1,357 4.3 -8.6°
Drops below altitude 10° 04:05:08 10° 3° (N) 2,702 6.1 -7.8°
Sets 04:07:49 0° 11° (N) 3,651 6.9 -7.4°
